Regional Weather Roundup
Issued by NWS

Home | Current Version | Previous Version | Text Only | Print | Product List | Glossary On
Versions: 1 2 3 4 5 6 7 8 9 10 11 12 13 14 15 16 17 18 19 20 21 22 23 24 25 26 27 28 29 30 31 32 33 34 35 36 37 38 39 40 41 42 43 44 45 46 47 48 49 50
000
ASUS44 KBMX 210710
RWRAL

ALABAMA REGIONAL WEATHER ROUNDUP
NATIONAL WEATHER SERVICE BIRMINGHAM AL
200 AM CDT TUE APR 21 2015

NOTE: "FAIR" INDICATES FEW OR NO CLOUDS BELOW 12,000 FEET
WITH NO SIGNIFICANT WEATHER AND/OR OBSTRUCTIONS TO VISIBILITY.

THE REMARK "TC" DENOTES TEMPERATURE IN DEGREES CELSIUS.

ALZ001>011-014-016>018-020-210800-
NORTH ALABAMA

CITY           SKY/WX    TMP DP  RH WIND       PRES   REMARKS
MUSCLE SHOALS  CLEAR     48  43  82 CALM      29.96S
HUNTSVILLE     CLEAR     51  46  83 CALM      29.94F
DECATUR        CLEAR     50  44  80 SW3       29.95S
HALEYVILLE       N/A     44  44 100 CALM      29.97F
GADSDEN        CLEAR     52  41  66 CALM      29.93F
$$

ALZ012-013-022-023-030>036-040>044-210800-
WEST CENTRAL ALABAMA

CITY           SKY/WX    TMP DP  RH WIND       PRES   REMARKS
TUSCALOOSA     CLEAR     50  47  89 CALM      29.97S
$$

ALZ015-024>027-033>036-040>044-210800-
CENTRAL ALABAMA

CITY           SKY/WX    TMP DP  RH WIND       PRES   REMARKS
BIRMINGHAM     CLEAR     53  45  74 NW3       29.97S
MONTGOMERY     MOCLDY    56  48  74 NW3       29.95S
SHELBY CO ARPT CLEAR     54  44  69 CALM      29.95F
MAXWELL AFB    PTCLDY    56  48  74 NW5       29.94S
GREENVILLE     FAIR      57  48  72 NW5       29.94S
$$

ALZ019-021-028-029-037-038-045>048-210800-
EAST CENTRAL ALABAMA

CITY           SKY/WX    TMP DP  RH WIND       PRES   REMARKS
ANNISTON       CLEAR     54  44  69 VRB5      29.94F
ALEXANDER CITY CLEAR     54  46  73 NW3       29.94S
AUBURN         CLEAR     54  45  71 NW7       29.95S
$$

ALZ051>064-210800-
SOUTHWEST ALABAMA

CITY           SKY/WX    TMP DP  RH WIND       PRES   REMARKS
MOBILE         NOT AVBL
BROOKLEY FIELD CLEAR     57  51  80 N3        29.97S
EVERGREEN      CLEAR     55  50  83 CALM      29.96S
$$

ALZ049-050-065>069-210800-
SOUTHEAST ALABAMA

CITY           SKY/WX    TMP DP  RH WIND       PRES   REMARKS
DOTHAN         CLEAR     59  52  77 NW7       29.96S
OZARK          CLEAR     58  49  72 NW5       29.93S
TROY           PTCLDY    54  50  86 CALM      29.94S
EUFAULA        FAIR      59  51  75 CALM      29.92R
$$


USA.gov is the U.S. government's official web portal to all federal, state and local government web resources and services.